GW3506 Weather Reports


Display with metric or nautical units.
time (UTC)temp
F
wind
direction
speed
MPH
gust
MPH
rain 1hr
in
rain 24hr
in
rain mn
in
humidity
%
barometer
mb
20260503024615 75 331 0.0 0.0 0.00 0.00 0.00 93 1013.4
20260503024112 75 331 0.0 0.0 0.00 0.00 0.00 92 1013.2
20260503023609 75 331 0.0 0.0 0.00 0.00 0.00 92 1013.1
20260503023106 75 331 2.0 2.0 0.00 0.00 0.00 92 1013.2
20260503022602 75 328 1.0 1.0 0.00 0.00 0.00 92 1013.1
20260503022057 75 327 2.0 2.0 0.00 0.00 0.00 91 1013.2
20260503021554 75 330 1.0 2.0 0.00 0.00 0.00 91 1013.3
20260503021051 75 323 2.0 3.0 0.00 0.00 0.00 90 1013.2
20260503020548 75 355 1.0 1.0 0.00 0.00 0.00 90 1013.3
20260503020045 76 331 6.0 7.0 0.00 0.00 0.00 89 1013.5
20260503015541 76 327 1.0 1.0 0.00 0.00 0.00 89 1013.4
20260503015039 77 307 5.0 8.0 0.00 0.00 0.00 88 1013.2
20260503014534 77 308 2.0 2.0 0.00 0.00 0.00 87 1013.2
20260503014033 78 297 2.0 2.0 0.00 0.00 0.00 86 1013.0
20260503013530 78 324 2.0 2.0 0.00 0.00 0.00 87 1013.3
20260503013027 79 316 2.0 3.0 0.00 0.00 0.00 87 1013.1
20260503012525 80 297 4.0 4.0 0.00 0.00 0.00 90 1012.9
20260503012021 80 206 1.0 1.0 0.00 0.00 0.00 90 1012.7
20260503011518 80 220 1.0 2.0 0.00 0.00 0.00 90 1012.8
20260503011015 80 210 0.0 0.0 0.00 0.00 0.00 90 1012.8
20260503010511 80 258 0.0 0.0 0.00 0.00 0.00 90 1012.7
20260503010009 80 218 0.0 1.0 0.00 0.00 0.00 89 1012.9
20260503005506 80 222 1.0 1.0 0.00 0.00 0.00 89 1012.5
20260503005003 80 253 0.0 1.0 0.00 0.00 0.00 89 1012.7
20260503004459 80 233 1.0 1.0 0.00 0.00 0.00 89 1012.7
20260503003957 80 223 0.0 0.0 0.00 0.00 0.00 89 1012.6
20260503003453 80 213 1.0 1.0 0.00 0.00 0.00 89 1012.6
20260503002950 80 218 2.0 2.0 0.00 0.00 0.00 89 1012.4
20260503002448 80 222 0.0 1.0 0.00 0.00 0.00 89 1012.4
20260503001944 80 202 2.0 2.0 0.00 0.00 0.00 89 1012.3
20260503001441 80 224 1.0 1.0 0.00 0.00 0.00 89 1012.3
20260503000938 80 241 2.0 2.0 0.00 0.00 0.00 89 1012.2
20260503000437 81 237 1.0 1.0 0.00 0.00 0.00 89 1012.4
20260502235933 81 209 1.0 1.0 0.00 0.00 0.00 87 1012.2
20260502235429 81 247 1.0 2.0 0.00 0.00 0.00 87 1012.0
20260502234927 81 219 1.0 3.0 0.00 0.00 0.00 87 1012.0
20260502234423 81 210 1.0 1.0 0.00 0.00 0.00 87 1012.2
20260502233920 81 229 1.0 2.0 0.00 0.00 0.00 86 1012.1
20260502233415 82 212 1.0 1.0 0.00 0.00 0.00 86 1012.0
20260502232913 82 235 0.0 0.0 0.00 0.00 0.00 85 1011.8
20260502232409 82 225 2.0 3.0 0.00 0.00 0.00 85 1012.1
20260502231906 82 197 2.0 2.0 0.00 0.00 0.00 85 1011.8
20260502231403 82 195 2.0 2.0 0.00 0.00 0.00 85 1011.8
20260502230900 82 277 1.0 1.0 0.00 0.00 0.00 85 1011.7
20260502230354 82 193 3.0 4.0 0.00 0.00 0.00 85 1011.8
20260502225850 82 239 1.0 2.0 0.00 0.00 0.00 85 1011.7
20260502225347 82 216 1.0 1.0 0.00 0.00 0.00 85 1011.6
20260502224844 82 216 2.0 4.0 0.00 0.00 0.00 85 1011.4
20260502224340 82 196 3.0 4.0 0.00 0.00 0.00 84 1011.2
20260502223837 83 205 3.0 3.0 0.00 0.00 0.00 84 1011.3
20260502223335 83 203 1.0 2.0 0.00 0.00 0.00 83 1011.1
20260502222832 83 207 1.0 1.0 0.00 0.00 0.00 83 1011.1
20260502222324 83 277 1.0 2.0 0.00 0.00 0.00 82 1011.2
20260502221820 83 235 2.0 3.0 0.00 0.00 0.00 82 1011.2
20260502221316 84 251 2.0 3.0 0.00 0.00 0.00 81 1011.3
20260502220813 84 227 1.0 2.0 0.00 0.00 0.00 81 1011.2
20260502220303 85 229 2.0 3.0 0.00 0.00 0.00 79 1011.3
20260502215800 85 229 3.0 4.0 0.00 0.00 0.00 78 1011.3
20260502215257 85 259 2.0 2.0 0.00 0.00 0.00 80 1011.1
20260502214754 85 192 3.0 3.0 0.00 0.00 0.00 77 1011.1
20260502214251 85 238 3.0 4.0 0.00 0.00 0.00 77 1011.0
20260502213748 85 142 5.0 7.0 0.00 0.00 0.00 77 1010.9
20260502213245 86 134 7.0 10.0 0.00 0.00 0.00 77 1010.9
20260502212744 86 200 5.0 7.0 0.00 0.00 0.00 76 1010.9
20260502212242 86 256 3.0 4.0 0.00 0.00 0.00 76 1010.9
20260502211737 87 213 4.0 6.0 0.00 0.00 0.00 76 1011.2
20260502211235 87 206 5.0 7.0 0.00 0.00 0.00 75 1010.9
20260502210732 86 223 6.0 8.0 0.00 0.00 0.00 75 1010.7
20260502210229 86 310 3.0 6.0 0.00 0.00 0.00 76 1010.7
20260502205726 87 204 5.0 7.0 0.00 0.00 0.00 75 1010.7
20260502205222 86 195 2.0 3.0 0.00 0.00 0.00 77 1010.6
20260502204720 86 149 6.0 7.0 0.00 0.00 0.00 74 1010.6
20260502204217 86 198 3.0 4.0 0.00 0.00 0.00 76 1010.6
20260502203715 87 170 6.0 7.0 0.00 0.00 0.00 74 1010.6
20260502203212 87 195 3.0 4.0 0.00 0.00 0.00 73 1010.9
20260502202706 87 162 5.0 7.0 0.00 0.00 0.00 74 1010.7
20260502202205 87 211 3.0 3.0 0.00 0.00 0.00 75 1010.8
20260502201702 88 219 3.0 3.0 0.00 0.00 0.00 72 1010.8
20260502201158 87 224 2.0 3.0 0.00 0.00 0.00 71 1010.5
20260502200654 87 196 4.0 6.0 0.00 0.00 0.00 74 1010.9
20260502200151 88 209 2.0 3.0 0.00 0.00 0.00 71 1010.7
20260502195649 88 234 2.0 4.0 0.00 0.00 0.00 73 1010.7
20260502195145 88 180 3.0 4.0 0.00 0.00 0.00 70 1010.8
20260502194642 88 214 3.0 3.0 0.00 0.00 0.00 71 1010.9
20260502194139 88 213 3.0 3.0 0.00 0.00 0.00 72 1011.0
20260502193635 88 243 5.0 6.0 0.00 0.00 0.00 72 1011.0
20260502193132 89 194 4.0 6.0 0.00 0.00 0.00 72 1010.9
20260502192627 88 213 4.0 6.0 0.00 0.00 0.00 73 1011.2
20260502192125 87 200 6.0 7.0 0.00 0.00 0.00 73 1010.9
20260502191622 88 223 5.0 6.0 0.00 0.00 0.00 71 1011.1
20260502191120 88 193 5.0 7.0 0.00 0.00 0.00 70 1011.3
20260502190617 89 237 2.0 3.0 0.00 0.00 0.00 70 1011.2
20260502190115 89 222 2.0 2.0 0.00 0.00 0.00 71 1011.3
20260502185609 89 202 3.0 6.0 0.00 0.00 0.00 70 1011.5
20260502185106 89 230 2.0 3.0 0.00 0.00 0.00 71 1011.4
20260502184602 89 192 3.0 4.0 0.00 0.00 0.00 72 1011.4
20260502184057 89 230 4.0 4.0 0.00 0.00 0.00 72 1011.5
20260502183554 89 213 3.0 4.0 0.00 0.00 0.00 73 1011.5
20260502183050 88 126 3.0 4.0 0.00 0.00 0.00 73 1011.7
20260502182546 88 176 3.0 3.0 0.00 0.00 0.00 73 1011.4
20260502182041 89 202 5.0 6.0 0.00 0.00 0.00 71 1011.5
20260502181534 88 218 3.0 4.0 0.00 0.00 0.00 71 1011.4
20260502181032 88 210 7.0 8.0 0.00 0.00 0.00 71 1011.6
20260502180529 88 210 5.0 6.0 0.00 0.00 0.00 75 1011.6
20260502170442 87 152 3.0 4.0 0.00 0.00 0.00 78 1012.0
20260502163925 87 196 6.0 8.0 0.00 0.00 0.00 80 1012.0
20260502163421 87 248 3.0 4.0 0.00 0.00 0.00 78 1012.0
20260502162919 87 202 4.0 8.0 0.00 0.00 0.00 78 1012.1
20260502162415 87 226 4.0 4.0 0.00 0.00 0.00 78 1012.0
20260502161912 87 189 2.0 3.0 0.00 0.00 0.00 79 1012.1
20260502161408 87 183 3.0 7.0 0.00 0.00 0.00 79 1012.0
20260502160907 87 214 3.0 4.0 0.00 0.00 0.00 78 1012.1
20260502160405 87 200 2.0 3.0 0.00 0.00 0.00 81 1012.2
20260502152340 86 245 3.0 4.0 0.00 0.00 0.00 81 1012.1
20260502151838 87 101 4.0 6.0 0.00 0.00 0.00 80 1012.3
20260502151334 86 246 5.0 6.0 0.00 0.00 0.00 80 1012.3
20260502150832 86 176 2.0 2.0 0.00 0.00 0.00 81 1012.2
20260502150328 86 218 4.0 6.0 0.00 0.00 0.00 81 1012.1
20260502130716 83 228 6.0 8.0 0.00 0.00 0.00 85 1011.2
20260502130214 83 108 4.0 6.0 0.00 0.00 0.00 84 1011.1
20260502123700 83 218 3.0 6.0 0.00 0.00 0.00 83 1011.0
20260502123156 82 182 2.0 2.0 0.00 0.00 0.00 82 1011.0
20260502122653 82 118 2.0 3.0 0.00 0.00 0.00 84 1010.9
20260502122149 82 114 2.0 3.0 0.00 0.00 0.00 83 1010.8
20260502121648 82 188 3.0 4.0 0.00 0.00 0.00 85 1010.8
20260502121145 82 202 4.0 6.0 0.00 0.00 0.00 85 1010.7
20260502120641 81 146 2.0 2.0 0.00 0.00 0.00 88 1010.9
20260502120139 81 207 2.0 2.0 0.00 0.00 0.00 90 1010.7
20260502115636 81 151 2.0 2.0 0.00 0.00 0.00 91 1010.6
20260502115132 81 205 3.0 4.0 0.00 0.00 0.00 91 1010.8
20260502114628 81 131 3.0 6.0 0.00 0.00 0.00 90 1010.6
20260502114126 81 174 2.0 2.0 0.00 0.00 0.00 90 1010.5
20260502113623 80 128 2.0 3.0 0.00 0.00 0.00 90 1010.8
20260502113121 80 179 2.0 4.0 0.00 0.00 0.00 90 1010.6
20260502112619 80 192 3.0 3.0 0.00 0.00 0.00 89 1010.6
20260502112116 80 223 2.0 2.0 0.00 0.00 0.00 89 1010.6
20260502111613 80 196 2.0 3.0 0.00 0.00 0.00 89 1010.5
20260502111111 80 188 2.0 2.0 0.00 0.00 0.00 88 1010.6
20260502110608 80 200 3.0 3.0 0.00 0.00 0.00 88 1010.6
20260502110106 80 130 3.0 4.0 0.00 0.00 0.00 89 1010.5
20260502105603 80 164 1.0 2.0 0.00 0.00 0.00 90 1010.5
20260502105100 80 215 2.0 3.0 0.00 0.00 0.00 90 1010.6
20260502104557 80 190 2.0 3.0 0.00 0.00 0.00 91 1010.5
20260502104054 80 125 2.0 3.0 0.00 0.00 0.00 91 1010.7
20260502103552 80 180 2.0 3.0 0.00 0.00 0.00 90 1010.6
20260502103050 80 206 3.0 4.0 0.00 0.00 0.00 90 1010.7
20260502102546 80 164 2.0 3.0 0.00 0.00 0.00 90 1010.7
20260502102043 80 193 2.0 2.0 0.00 0.00 0.00 89 1010.6
20260502101541 80 187 4.0 4.0 0.00 0.00 0.00 90 1010.6
20260502101039 80 158 4.0 7.0 0.00 0.00 0.00 90 1010.5
20260502100537 80 225 2.0 3.0 0.00 0.00 0.00 91 1010.6
20260502091512 80 170 2.0 2.0 0.00 0.00 0.00 92 1010.8
20260502091009 79 181 3.0 4.0 0.00 0.00 0.00 92 1010.7
20260502090506 79 111 2.0 3.0 0.00 0.00 0.00 93 1010.8
20260502071401 74 73 1.0 1.0 0.00 0.00 0.00 96 1010.8
20260502070859 74 73 1.0 1.0 0.00 0.00 0.00 96 1010.9
20260502070356 74 73 0.0 0.0 0.00 0.00 0.00 97 1010.8
20260502065855 74 73 0.0 0.0 0.00 0.00 0.00 96 1010.8
20260502065353 74 73 0.0 0.0 0.00 0.00 0.00 96 1010.7
20260502064850 74 73 0.0 0.0 0.00 0.00 0.00 96 1011.1
20260502064348 73 73 0.0 0.0 0.00 0.00 0.00 96 1010.9
20260502063845 73 73 0.0 0.0 0.00 0.00 0.00 96 1011.0
20260502063343 73 73 0.0 0.0 0.00 0.00 0.00 96 1010.7
20260502062840 73 73 1.0 2.0 0.00 0.00 0.00 96 1010.9
20260502062337 73 73 1.0 1.0 0.00 0.00 0.00 96 1010.9
20260502061836 73 73 1.0 1.0 0.00 0.00 0.00 96 1011.2
20260502061333 73 73 0.0 0.0 0.00 0.00 0.00 96 1011.4
20260502060829 73 74 1.0 2.0 0.00 0.00 0.00 95 1011.3
20260502060324 73 66 1.0 1.0 0.00 0.00 0.00 95 1011.4
20260502055822 73 68 0.0 1.0 0.00 0.00 0.00 95 1011.3
20260502055319 73 69 1.0 1.0 0.00 0.00 0.00 95 1011.6
20260502054814 73 68 0.0 0.0 0.00 0.00 0.00 95 1011.5
20260502054311 73 69 1.0 2.0 0.00 0.00 0.00 95 1011.2
20260502053808 73 77 1.0 1.0 0.00 0.00 0.00 95 1011.3
20260502053305 73 77 1.0 1.0 0.00 0.00 0.00 95 1011.4
20260502052803 73 74 1.0 1.0 0.00 0.00 0.00 94 1011.2
20260502052301 73 81 1.0 2.0 0.00 0.00 0.00 94 1011.2
20260502051758 74 182 1.0 1.0 0.00 0.00 0.00 94 1011.2
20260502051257 74 182 1.0 1.0 0.00 0.00 0.00 94 1011.3
20260502050752 74 200 0.0 0.0 0.00 0.00 0.00 93 1011.3
20260502050249 74 200 0.0 0.0 0.00 0.00 0.00 92 1011.1
20260502045746 75 204 0.0 0.0 0.00 0.00 0.00 91 1011.1
20260502045243 75 204 0.0 0.0 0.00 0.00 0.00 91 1011.1
20260502044740 75 204 0.0 0.0 0.00 0.00 0.00 91 1011.2
20260502044236 75 202 0.0 0.0 0.00 0.00 0.00 91 1011.2
20260502043733 74 210 0.0 0.0 0.00 0.00 0.00 91 1011.2
20260502043231 75 210 0.0 0.0 0.00 0.00 0.00 91 1011.2
20260502042730 74 204 0.0 0.0 0.00 0.00 0.00 91 1011.4
20260502042228 75 204 0.0 0.0 0.00 0.00 0.00 89 1011.4
20260502041725 75 204 0.0 0.0 0.00 0.00 0.00 88 1011.2
20260502041223 76 202 0.0 0.0 0.00 0.00 0.00 88 1011.2
20260502040720 76 202 0.0 0.0 0.00 0.00 0.00 87 1011.2
20260502040216 76 204 0.0 0.0 0.00 0.00 0.00 87 1011.3
20260502035712 76 204 0.0 0.0 0.00 0.00 0.00 87 1011.3
20260502035209 76 204 0.0 0.0 0.00 0.00 0.00 87 1011.2
20260502034707 77 204 0.0 0.0 0.00 0.00 0.00 86 1011.4
20260502034205 77 198 1.0 1.0 0.00 0.00 0.00 86 1011.4
20260502033703 77 202 0.0 0.0 0.00 0.00 0.00 86 1011.3
20260502033200 77 209 1.0 1.0 0.00 0.00 0.00 87 1011.4
20260502032656 77 207 0.0 0.0 0.00 0.00 0.00 87 1011.6
20260502032152 77 208 1.0 1.0 0.00 0.00 0.00 87 1011.6
20260502031651 77 208 1.0 1.0 0.00 0.00 0.00 87 1011.5
20260502031148 77 205 0.0 1.0 0.00 0.00 0.00 87 1011.5
20260502030647 77 204 1.0 1.0 0.00 0.00 0.00 87 1011.5
20260502030144 77 204 0.0 1.0 0.00 0.00 0.00 86 1011.7
20260502025641 77 197 1.0 1.0 0.00 0.00 0.00 86 1011.5
20260502025139 77 223 1.0 1.0 0.00 0.00 0.00 85 1011.6